This is the latest recevied weather packets stored in our database for station/object KC1OEK-13. If no packets are shown the sender has not sent any weather packets the latest 10 day(s).
| Time | Temp. | Humidity | Pressure | Rain* | Wind** | Luminosity | Snow |
|---|---|---|---|---|---|---|---|
| 1777531086 | 8.33° C | 99% | 1010.3 hPa | 1.78 mm | - | 0 W/m² | - |
| 1777530784 | 8.33° C | 99% | 1010.5 hPa | 1.78 mm | - | 0 W/m² | - |
| 1777530482 | 8.33° C | 99% | 1010.5 hPa | 0 mm | - | 0 W/m² | - |
| 1777530176 | 8.33° C | 99% | 1010.6 hPa | 0 mm | - | 0 W/m² | - |
| 1777529875 | 8.33° C | 98% | 1010.5 hPa | 1.78 mm | - | 0 W/m² | - |
| 1777529570 | 8.33° C | 98% | 1010.3 hPa | 1.78 mm | - | 0 W/m² | - |
| 1777529269 | 8.33° C | 98% | 1010.2 hPa | 1.27 mm | - | 0 W/m² | - |
| 1777528963 | 8.33° C | 98% | 1010.2 hPa | 1.78 mm | - | 0 W/m² | - |
| 1777528659 | 8.33° C | 98% | 1010 hPa | 3.05 mm | - | 0 W/m² | - |
| 1777528358 | 8.89° C | 98% | 1010.2 hPa | 1.27 mm | - | 0 W/m² | - |
| 1777528056 | 8.33° C | 98% | 1010.3 hPa | 1.78 mm | - | 0 W/m² | - |
| 1777527447 | 8.89° C | 97% | 1010.9 hPa | 3.05 mm | - | 0 W/m² | - |
| 1777527142 | 8.89° C | 97% | 1011 hPa | 4.83 mm | - | 0 W/m² | - |
| 1777526839 | 8.89° C | 96% | 1011.3 hPa | 3.05 mm | - | 0 W/m² | - |
| 1777526533 | 8.89° C | 96% | 1011.5 hPa | 3.05 mm | - | 0 W/m² | - |
| 1777526228 | 8.89° C | 96% | 1011.7 hPa | 3.56 mm | - | 0 W/m² | - |
| 1777525924 | 8.89° C | 95% | 1011.6 hPa | 3.05 mm | - | 0 W/m² | - |
| 1777525623 | 8.89° C | 95% | 1011.5 hPa | 4.32 mm | - | 0 W/m² | - |
| 1777525320 | 8.89° C | 95% | 1011.9 hPa | 4.83 mm | - | 0 W/m² | - |
| 1777525015 | 8.89° C | 94% | 1011.9 hPa | 3.05 mm | - | 0 W/m² | - |
| 1777524712 | 8.89° C | 94% | 1011.8 hPa | 1.27 mm | - | 0 W/m² | - |
| 1777524410 | 9.44° C | 94% | 1011.7 hPa | 1.78 mm | - | 0 W/m² | - |
| 1777524106 | 9.44° C | 93% | 1011.8 hPa | 1.27 mm | - | 0 W/m² | - |
| 1777523803 | 9.44° C | 93% | 1011.9 hPa | 1.78 mm | - | 0 W/m² | - |
| 1777523499 | 9.44° C | 93% | 1011.8 hPa | 1.78 mm | - | 0 W/m² | - |
* Rain latest hour (hover to see other rain measurements)
** Current wind speed in m/s (hover to see current wind gust speed)